User: anonymous   Login
Location: Berlise
(49.6641°N, 4.1077°E)
Time: 17:06:45
(UTC+00:00)
Language:

Cosmos 1634 Rocket - Orbit

View from above orbital plane
View from above orbital plane
View from above satellite
View from above satellite

Ground track
Ground track

The orbit data is extracted from the following two-line orbital elements,

1 15598U 85022B   21113.20314602 -.00000050  00000-0 -66438-4 0  9999
2 15598  82.9352 142.0124 0023185 134.4119 294.7493 13.76592299813907
Epoch (UTC): 23 April 2021 04:52:31
Eccentricity: 0.0023185
inclination: 82.9352°
perigee height: 959 km
apogee height: 993 km
right ascension of ascending node: 142.0124°
argument of perigee: 134.4119°
revolutions per day: 13.76592299
mean anomaly at epoch: 294.7493°
orbit number at epoch: 81390

The dashed part of the orbit path shows where the satellite is in the earth's shadow,  

DLR